Year,Month,Day,Hour,Minute,Value (Times are PST for temperature in C)
2014,08,15,10,11,17.20
2014,08,15,10,12,17.20
2014,08,15,10,13,17.30
2014,08,15,10,14,17.30
2014,08,15,10,15,17.40
2014,08,15,10,16,17.50
2014,08,15,10,17,17.70
2014,08,15,10,18,17.70
2014,08,15,10,19,17.80
2014,08,15,10,20,18.00
2014,08,15,10,21,18.20
2014,08,15,10,22,18.30
2014,08,15,10,23,18.40
2014,08,15,10,24,18.50
2014,08,15,10,25,18.60
2014,08,15,10,26,18.70
2014,08,15,10,27,18.80
2014,08,15,10,28,18.70
2014,08,15,10,29,18.80
2014,08,15,10,30,18.80
2014,08,15,10,31,18.90
2014,08,15,10,32,18.90
2014,08,15,10,33,18.90
2014,08,15,10,34,19.10
2014,08,15,10,35,19.10
2014,08,15,10,36,19.20
2014,08,15,10,37,19.30
2014,08,15,10,38,19.40
2014,08,15,10,39,19.50
2014,08,15,10,40,19.50
2014,08,15,10,41,19.60
2014,08,15,10,42,19.70
2014,08,15,10,43,19.90
2014,08,15,10,44,19.90
2014,08,15,10,45,19.80
2014,08,15,10,46,19.80
2014,08,15,10,47,19.80
2014,08,15,10,48,19.80
2014,08,15,10,49,19.70
2014,08,15,10,50,19.60
2014,08,15,10,51,19.60
2014,08,15,10,52,19.60
2014,08,15,10,53,19.50
2014,08,15,10,54,19.50
2014,08,15,10,55,19.50
2014,08,15,10,56,19.50
2014,08,15,10,57,19.60
2014,08,15,10,58,19.60
2014,08,15,10,59,19.60
2014,08,15,11,00,19.70
2014,08,15,11,01,19.70
2014,08,15,11,02,19.80
2014,08,15,11,03,19.90
2014,08,15,11,04,20.00
2014,08,15,11,05,20.10
2014,08,15,11,06,20.10
2014,08,15,11,07,20.20
2014,08,15,11,08,20.20
2014,08,15,11,09,20.30
2014,08,15,11,10,20.30
2014,08,15,11,11,20.30
2014,08,15,11,12,20.20
2014,08,15,11,13,20.20
2014,08,15,11,14,20.20
2014,08,15,11,15,20.30
2014,08,15,11,16,20.40
2014,08,15,11,17,20.50
2014,08,15,11,18,20.60
2014,08,15,11,19,20.60
2014,08,15,11,20,20.60
2014,08,15,11,21,20.50
2014,08,15,11,22,20.30
2014,08,15,11,23,20.30
2014,08,15,11,24,20.30
2014,08,15,11,25,20.30
2014,08,15,11,26,20.30
2014,08,15,11,27,20.30
2014,08,15,11,28,20.20
2014,08,15,11,29,20.20
2014,08,15,11,30,20.20
2014,08,15,11,31,20.20
2014,08,15,11,32,20.20
2014,08,15,11,33,20.20
2014,08,15,11,34,20.30
2014,08,15,11,35,20.40
2014,08,15,11,36,20.40
2014,08,15,11,37,20.40
2014,08,15,11,38,20.40
2014,08,15,11,39,20.30
2014,08,15,11,40,20.30
2014,08,15,11,41,20.20
2014,08,15,11,42,20.20
2014,08,15,11,43,20.20
2014,08,15,11,44,20.20
2014,08,15,11,45,20.20
2014,08,15,11,46,20.10
2014,08,15,11,47,20.00
2014,08,15,11,48,19.90
2014,08,15,11,49,19.90
2014,08,15,11,50,19.90
2014,08,15,11,51,20.00
2014,08,15,11,52,20.10
2014,08,15,11,53,20.10
2014,08,15,11,54,20.10
2014,08,15,11,55,20.20
2014,08,15,11,56,20.20
2014,08,15,11,57,20.20
2014,08,15,11,58,20.20
2014,08,15,11,59,20.20
2014,08,15,12,00,20.10
2014,08,15,12,01,20.10
2014,08,15,12,02,20.00
2014,08,15,12,03,19.90
2014,08,15,12,04,19.90
2014,08,15,12,05,20.00
2014,08,15,12,06,20.10
2014,08,15,12,07,20.00
2014,08,15,12,08,19.90
2014,08,15,12,09,19.70
2014,08,15,12,10,19.60
2014,08,15,12,11,19.60
2014,08,15,12,12,19.60
2014,08,15,12,13,19.60
2014,08,15,12,14,19.80
2014,08,15,12,15,19.80
2014,08,15,12,16,19.70
2014,08,15,12,17,19.60
2014,08,15,12,18,19.60
2014,08,15,12,19,19.50
2014,08,15,12,20,19.40
2014,08,15,12,21,19.40
2014,08,15,12,22,19.40
2014,08,15,12,23,19.40
2014,08,15,12,24,19.50
2014,08,15,12,25,19.50
2014,08,15,12,26,19.50
2014,08,15,12,27,19.50
2014,08,15,12,28,19.60
2014,08,15,12,29,19.60
2014,08,15,12,30,19.60
2014,08,15,12,31,19.60
2014,08,15,12,32,19.70
2014,08,15,12,33,19.70
2014,08,15,12,34,19.70
2014,08,15,12,35,19.80
2014,08,15,12,36,19.80
2014,08,15,12,37,19.90
2014,08,15,12,38,20.00
2014,08,15,12,39,20.10
2014,08,15,12,40,20.10
2014,08,15,12,41,20.00
2014,08,15,12,42,20.00
2014,08,15,12,43,20.10
2014,08,15,12,44,20.20
2014,08,15,12,45,20.20
2014,08,15,12,46,20.20
2014,08,15,12,47,20.10
2014,08,15,12,48,20.10
2014,08,15,12,49,20.10
2014,08,15,12,50,20.10
2014,08,15,12,51,20.20
2014,08,15,12,52,20.20
2014,08,15,12,53,20.40
2014,08,15,12,54,20.40
2014,08,15,12,55,20.50
2014,08,15,12,56,20.60
2014,08,15,12,57,20.60
2014,08,15,12,58,20.60
2014,08,15,12,59,20.60
2014,08,15,13,00,20.50
2014,08,15,13,01,20.50
2014,08,15,13,02,20.40
2014,08,15,13,03,20.50
2014,08,15,13,04,20.50
2014,08,15,13,05,20.50
2014,08,15,13,06,20.60
2014,08,15,13,07,20.50
2014,08,15,13,08,20.50
2014,08,15,13,09,20.40
2014,08,15,13,10,20.40
2014,08,15,13,11,20.40
2014,08,15,13,12,20.50
2014,08,15,13,13,20.50
2014,08,15,13,14,20.50
2014,08,15,13,15,20.50
2014,08,15,13,16,20.60
2014,08,15,13,17,20.60
2014,08,15,13,18,20.60
2014,08,15,13,19,20.60
2014,08,15,13,20,20.60
2014,08,15,13,21,20.60
2014,08,15,13,22,20.60
2014,08,15,13,23,20.70
2014,08,15,13,24,20.70
2014,08,15,13,25,20.80
2014,08,15,13,26,20.80
2014,08,15,13,27,20.80
2014,08,15,13,28,20.70
2014,08,15,13,29,20.60
2014,08,15,13,30,20.60
2014,08,15,13,31,20.70
2014,08,15,13,32,20.70
2014,08,15,13,33,20.70
2014,08,15,13,34,20.60
2014,08,15,13,35,20.60
2014,08,15,13,36,20.60
2014,08,15,13,37,20.60
2014,08,15,13,38,20.60
2014,08,15,13,39,20.60
2014,08,15,13,40,20.60
2014,08,15,13,41,20.70
2014,08,15,13,42,20.70
2014,08,15,13,43,20.70
2014,08,15,13,44,20.70
2014,08,15,13,45,20.70
2014,08,15,13,46,20.70
2014,08,15,13,47,20.70
2014,08,15,13,48,20.70
2014,08,15,13,49,20.70
2014,08,15,13,50,20.70
2014,08,15,13,51,20.60
2014,08,15,13,52,20.70
2014,08,15,13,53,20.80
2014,08,15,13,54,20.80
2014,08,15,13,55,20.90
2014,08,15,13,56,20.90
2014,08,15,13,57,21.00
2014,08,15,13,58,21.00
2014,08,15,13,59,21.00
2014,08,15,14,00,21.00
2014,08,15,14,01,21.00
2014,08,15,14,02,20.90
2014,08,15,14,03,20.90
2014,08,15,14,04,20.90
2014,08,15,14,05,20.90
2014,08,15,14,06,21.00
2014,08,15,14,07,21.10
2014,08,15,14,08,21.20
2014,08,15,14,09,21.30
2014,08,15,14,10,21.30
2014,08,15,14,11,21.30
2014,08,15,14,12,21.30
2014,08,15,14,13,21.10
2014,08,15,14,14,21.00
2014,08,15,14,15,21.00
2014,08,15,14,16,21.00
2014,08,15,14,17,21.00
2014,08,15,14,18,21.00
2014,08,15,14,19,21.00
2014,08,15,14,20,21.00
2014,08,15,14,21,21.00
2014,08,15,14,22,21.00
2014,08,15,14,23,20.90
2014,08,15,14,24,20.80
2014,08,15,14,25,20.70
2014,08,15,14,26,20.70
2014,08,15,14,27,20.60
2014,08,15,14,28,20.60
2014,08,15,14,29,20.60
2014,08,15,14,30,20.60
2014,08,15,14,31,20.70
2014,08,15,14,32,20.70
2014,08,15,14,33,20.70
2014,08,15,14,34,20.60
2014,08,15,14,35,20.60
2014,08,15,14,36,20.50
2014,08,15,14,37,20.50
2014,08,15,14,38,20.40
2014,08,15,14,39,20.40
2014,08,15,14,40,20.30
2014,08,15,14,41,20.40
2014,08,15,14,42,20.40
2014,08,15,14,43,20.40
2014,08,15,14,44,20.30
2014,08,15,14,45,20.50
2014,08,15,14,46,20.50
2014,08,15,14,47,20.50
2014,08,15,14,48,20.40
2014,08,15,14,49,20.40
2014,08,15,14,50,20.40
2014,08,15,14,51,20.50
2014,08,15,14,52,20.60
2014,08,15,14,53,20.60
2014,08,15,14,54,20.50
2014,08,15,14,55,20.50
2014,08,15,14,56,20.50
2014,08,15,14,57,20.50
2014,08,15,14,58,20.50
2014,08,15,14,59,20.50
2014,08,15,15,00,20.40
2014,08,15,15,01,20.40
2014,08,15,15,02,20.40
2014,08,15,15,03,20.50
2014,08,15,15,04,20.50
2014,08,15,15,05,20.50
2014,08,15,15,06,20.60
2014,08,15,15,07,20.60
2014,08,15,15,08,20.60
2014,08,15,15,09,20.50
2014,08,15,15,10,20.50
2014,08,15,15,11,20.50
2014,08,15,15,12,20.40
2014,08,15,15,13,20.40
2014,08,15,15,14,20.40
2014,08,15,15,15,20.40
2014,08,15,15,16,20.40
2014,08,15,15,17,20.30
2014,08,15,15,18,20.30
2014,08,15,15,19,20.30
2014,08,15,15,20,20.30
2014,08,15,15,21,20.30
2014,08,15,15,22,20.20
2014,08,15,15,23,20.20
2014,08,15,15,24,20.20
2014,08,15,15,25,20.20
2014,08,15,15,26,20.30
2014,08,15,15,27,20.40
2014,08,15,15,28,20.40
2014,08,15,15,29,20.50
2014,08,15,15,30,20.50
2014,08,15,15,31,20.50
2014,08,15,15,32,20.60
2014,08,15,15,33,20.60
2014,08,15,15,34,20.60
2014,08,15,15,35,20.60
2014,08,15,15,36,20.60
2014,08,15,15,37,20.60
2014,08,15,15,38,20.50
2014,08,15,15,39,20.50
2014,08,15,15,40,20.50
2014,08,15,15,41,20.40
2014,08,15,15,42,20.40
2014,08,15,15,43,20.30
2014,08,15,15,44,20.30
2014,08,15,15,45,20.30
2014,08,15,15,46,20.20
2014,08,15,15,47,20.20
2014,08,15,15,48,20.20
2014,08,15,15,49,20.20
2014,08,15,15,50,20.20
2014,08,15,15,51,20.20
2014,08,15,15,52,20.20
2014,08,15,15,53,20.10
2014,08,15,15,54,20.10
2014,08,15,15,55,20.20
2014,08,15,15,56,20.20
2014,08,15,15,57,20.20
2014,08,15,15,58,20.20
2014,08,15,15,59,20.20
2014,08,15,16,00,20.20
2014,08,15,16,01,20.20
2014,08,15,16,02,20.20
2014,08,15,16,03,20.20
2014,08,15,16,04,20.20
2014,08,15,16,05,20.20
2014,08,15,16,06,20.20
2014,08,15,16,07,20.10
2014,08,15,16,08,20.10
2014,08,15,16,09,20.10
2014,08,15,16,10,20.10
2014,08,15,16,11,20.10
2014,08,15,16,12,20.10
2014,08,15,16,13,20.00
2014,08,15,16,14,19.90
2014,08,15,16,15,19.90
2014,08,15,16,16,19.90
2014,08,15,16,17,19.90
2014,08,15,16,18,19.90
2014,08,15,16,19,19.90
2014,08,15,16,20,19.90
2014,08,15,16,21,19.90
2014,08,15,16,22,19.90
2014,08,15,16,23,19.90
2014,08,15,16,24,19.90
2014,08,15,16,25,19.90
2014,08,15,16,26,19.80
2014,08,15,16,27,19.80
2014,08,15,16,28,19.80
2014,08,15,16,29,19.70
2014,08,15,16,30,19.60
2014,08,15,16,31,19.40
2014,08,15,16,32,19.40
2014,08,15,16,33,19.30
2014,08,15,16,34,19.30
2014,08,15,16,35,19.30
2014,08,15,16,36,19.20
2014,08,15,16,37,19.10
2014,08,15,16,38,19.10
2014,08,15,16,39,19.10
2014,08,15,16,40,19.00
2014,08,15,16,41,18.90
2014,08,15,16,42,18.90
2014,08,15,16,43,18.90
2014,08,15,16,44,18.90
2014,08,15,16,45,19.00
2014,08,15,16,46,19.10
2014,08,15,16,47,19.10
2014,08,15,16,48,19.10
2014,08,15,16,49,19.10
2014,08,15,16,50,19.20
2014,08,15,16,51,19.20
2014,08,15,16,52,19.30
2014,08,15,16,53,19.30
2014,08,15,16,54,19.30
2014,08,15,16,55,19.30
2014,08,15,16,56,19.30
2014,08,15,16,57,19.20
2014,08,15,16,58,19.20
2014,08,15,16,59,19.20
2014,08,15,17,00,19.20
2014,08,15,17,01,19.20
2014,08,15,17,02,19.20
2014,08,15,17,03,19.20
2014,08,15,17,04,19.20
2014,08,15,17,05,19.20
2014,08,15,17,06,19.20
2014,08,15,17,07,19.20
2014,08,15,17,08,19.20
2014,08,15,17,09,19.20
2014,08,15,17,10,19.30
2014,08,15,17,11,19.20
2014,08,15,17,12,19.20
2014,08,15,17,13,19.20
2014,08,15,17,14,19.10
2014,08,15,17,15,19.10
2014,08,15,17,16,19.10
2014,08,15,17,17,19.10
2014,08,15,17,18,18.90
2014,08,15,17,19,18.90
2014,08,15,17,20,18.90
2014,08,15,17,21,18.90
2014,08,15,17,22,18.90
2014,08,15,17,23,18.90
2014,08,15,17,24,19.00
2014,08,15,17,25,19.10
2014,08,15,17,26,19.10
2014,08,15,17,27,19.10
2014,08,15,17,28,19.10
2014,08,15,17,29,19.10
2014,08,15,17,30,19.10
2014,08,15,17,31,19.10
2014,08,15,17,32,19.20
2014,08,15,17,33,19.20
2014,08,15,17,34,19.30
2014,08,15,17,35,19.30
2014,08,15,17,36,19.20
2014,08,15,17,37,19.20
2014,08,15,17,38,19.20
2014,08,15,17,39,19.10
2014,08,15,17,40,19.10
2014,08,15,17,41,19.10
2014,08,15,17,42,19.10
2014,08,15,17,43,19.10
2014,08,15,17,44,19.10
2014,08,15,17,45,19.10
2014,08,15,17,46,19.10
2014,08,15,17,47,19.00
2014,08,15,17,48,18.90
2014,08,15,17,49,18.80
2014,08,15,17,50,18.70
2014,08,15,17,51,18.70
2014,08,15,17,52,18.60
2014,08,15,17,53,18.60
2014,08,15,17,54,18.50
2014,08,15,17,55,18.40
2014,08,15,17,56,18.30
2014,08,15,17,57,18.20
2014,08,15,17,58,18.20
2014,08,15,17,59,18.10
2014,08,15,18,00,18.00
2014,08,15,18,01,17.90
2014,08,15,18,02,17.90
2014,08,15,18,03,17.90
2014,08,15,18,04,17.90
2014,08,15,18,05,17.80
2014,08,15,18,06,17.80
2014,08,15,18,07,17.70
2014,08,15,18,08,17.70
2014,08,15,18,09,17.70
2014,08,15,18,10,17.70
2014,08,15,18,11,17.70
2014,08,15,18,12,17.70
2014,08,15,18,13,17.70
2014,08,15,18,14,17.70
2014,08,15,18,15,17.70
2014,08,15,18,16,17.60
2014,08,15,18,17,17.60
2014,08,15,18,18,17.70
2014,08,15,18,19,17.70
2014,08,15,18,20,17.70
2014,08,15,18,21,17.70
2014,08,15,18,22,17.70
2014,08,15,18,23,17.70
2014,08,15,18,24,17.70
2014,08,15,18,25,17.70
2014,08,15,18,26,17.70
2014,08,15,18,27,17.70
2014,08,15,18,28,17.70
2014,08,15,18,29,17.70
2014,08,15,18,30,17.70
2014,08,15,18,31,17.70
2014,08,15,18,32,17.70
2014,08,15,18,33,17.70
2014,08,15,18,34,17.70
2014,08,15,18,35,17.70
2014,08,15,18,36,17.70
2014,08,15,18,37,17.70
2014,08,15,18,38,17.70
2014,08,15,18,39,17.80
2014,08,15,18,40,17.80
2014,08,15,18,41,17.80
2014,08,15,18,42,17.90
2014,08,15,18,43,17.90
2014,08,15,18,44,17.90
2014,08,15,18,45,17.90
2014,08,15,18,46,17.90
2014,08,15,18,47,17.90
2014,08,15,18,48,17.90
2014,08,15,18,49,17.90
2014,08,15,18,50,17.90
2014,08,15,18,51,17.90
2014,08,15,18,52,17.90
2014,08,15,18,53,17.90
2014,08,15,18,54,17.90
2014,08,15,18,55,17.90
